DW9372 Weather Reports


time (UTC)temp
F
wind
direction
speed
knots
gust
knots
rain 1hr
in
rain 24hr
in
rain mn
in
humidity
%
barometer
mb
20260506091525 45 277 1.7 1.7 0.07 0.61 0.61 97 1007.6
20260506091022 45 300 1.7 1.7 0.07 0.61 0.61 97 1007.8
20260506090520 45 268 0.0 1.7 0.05 0.60 0.60 97 1007.9
20260506090016 45 12 2.6 5.2 0.05 0.60 0.60 97 1007.7
20260506085513 45 277 0.0 2.6 0.07 0.59 0.59 97 1007.8
20260506085009 45 254 0.0 0.9 0.12 0.59 0.59 97 1007.7
20260506084506 45 314 1.7 5.2 0.17 0.58 0.58 97 1007.7
20260506084002 45 289 3.5 3.5 0.12 0.56 0.56 97 1008.0
20260506083500 45 297 0.9 2.6 0.14 0.55 0.55 97 1007.7
20260506082957 45 342 1.7 3.5 0.12 0.54 0.54 97 1007.9
20260506082454 45 300 4.3 6.1 0.17 0.53 0.53 97 1007.6
20260506081949 46 282 0.9 2.6 0.17 0.51 0.51 98 1007.6
20260506081448 46 21 1.7 1.7 0.12 0.50 0.50 97 1007.8
20260506080945 46 314 1.7 2.6 0.12 0.48 0.48 97 1007.5
20260506080442 46 69 1.7 3.5 0.12 0.47 0.47 97 1007.5
20260506073426 47 327 1.7 2.6 0.12 0.37 0.37 98 1007.1
20260506072923 48 238 0.0 1.7 0.12 0.36 0.36 98 1006.9
20260506072420 47 338 0.9 1.7 0.12 0.35 0.35 98 1007.1
20260506071918 47 286 0.9 1.7 0.17 0.34 0.34 98 1007.1
20260506071416 47 257 0.0 1.7 0.19 0.33 0.33 97 1007.1
20260506070912 48 274 0.0 1.7 0.12 0.31 0.31 97 1007.3
20260506070409 48 273 0.9 2.6 0.12 0.30 0.30 97 1007.2
20260506062347 49 347 0.9 1.7 0.12 0.21 0.21 98 1007.2
20260506061842 49 244 0.9 1.7 0.12 0.20 0.20 98 1007.4
20260506061339 49 292 0.9 1.7 0.12 0.19 0.19 98 1007.4
20260506060837 49 241 0.0 1.7 0.12 0.18 0.18 98 1007.6
20260506060335 49 257 0.0 2.6 0.05 0.17 0.17 98 1007.5
20260506051307 49 313 0.9 0.9 0.00 0.11 0.11 98 1007.9
20260506050805 49 254 0.0 1.7 0.00 0.11 0.11 98 1008.2
20260506050302 49 265 0.9 0.9 0.07 0.11 0.11 98 1008.2
20260506044753 49 253 0.0 1.7 0.05 0.10 0.10 98 1008.3
20260506044250 49 250 0.0 0.0 0.07 0.09 0.09 97 1008.4
20260506043747 49 10 0.9 1.7 0.19 0.09 0.09 97 1008.3
20260506043244 49 287 0.9 1.7 0.05 0.06 0.06 97 1008.3
20260506042743 50 268 1.7 1.7 0.12 0.06 0.06 97 1008.2
20260506042242 50 255 0.9 1.7 0.14 0.05 0.05 97 1008.6
20260506041739 50 257 0.0 1.7 0.12 0.04 0.04 97 1008.5
20260506041235 50 264 0.9 1.7 0.17 0.03 0.03 97 1008.6
20260506040728 50 220 0.0 0.0 0.19 0.02 0.02 97 1008.7
20260506040225 50 256 0.0 0.9 0.12 0.00 0.00 97 1008.6
20260506035721 50 257 0.0 0.9 0.05 0.65 0.65 97 1008.9
20260506035218 50 251 0.0 0.9 0.07 0.64 0.64 97 1008.8
20260506034715 50 143 0.9 0.9 0.07 0.64 0.64 97 1008.9
20260506034212 50 258 0.9 1.7 0.05 0.63 0.63 97 1008.9
20260506033710 50 280 0.9 1.7 0.12 0.63 0.63 97 1009.0
20260506033207 50 252 0.9 1.7 0.12 0.62 0.62 97 1009.4
20260506032703 50 252 0.0 1.7 0.12 0.61 0.61 97 1009.6
20260506032200 50 251 0.0 1.7 0.12 0.60 0.60 97 1009.2
20260506031651 50 255 0.9 0.9 0.12 0.59 0.59 97 1009.2
20260506031148 50 258 0.9 0.9 0.19 0.58 0.58 97 1009.2
20260506030647 50 238 0.0 1.7 0.05 0.56 0.56 97 1009.0
20260506030144 50 251 0.0 0.0 0.12 0.55 0.55 97 1008.6
20260506025641 50 276 0.0 1.7 0.12 0.54 0.54 97 1008.8
20260506025136 50 243 0.0 0.9 0.07 0.53 0.53 97 1008.9
20260506024634 50 256 0.0 0.0 0.12 0.52 0.52 97 1008.7
20260506024130 50 267 0.9 0.9 0.12 0.52 0.52 97 1008.6
20260506023627 50 292 1.7 2.6 0.00 0.50 0.50 97 1008.5
20260506023124 50 290 1.7 1.7 0.05 0.50 0.50 97 1008.5
20260506022621 50 246 0.0 3.5 0.17 0.50 0.50 97 1008.4
20260506022119 50 259 0.0 1.7 0.19 0.49 0.49 97 1008.6
20260506021616 50 250 0.0 0.0 0.05 0.46 0.46 97 1008.7
20260506021114 50 263 0.0 0.9 0.07 0.45 0.45 96 1008.8
20260506020610 50 320 1.7 1.7 0.07 0.45 0.45 96 1008.5
20260506020108 50 327 0.9 0.9 0.12 0.44 0.44 96 1008.6
20260506015605 50 251 0.0 0.9 0.05 0.43 0.43 96 1008.2
20260506015102 50 85 0.0 0.9 0.00 0.42 0.42 96 1008.4
20260506014600 50 272 0.0 0.0 0.00 0.42 0.42 96 1008.5
20260506014055 50 248 0.0 0.9 0.00 0.42 0.42 96 1008.5
20260506013554 50 55 0.9 0.9 0.07 0.42 0.42 96 1008.2
20260506013050 50 95 0.9 0.9 0.12 0.42 0.42 96 1008.3
20260506012546 50 294 0.0 2.6 0.05 0.41 0.41 96 1008.2
20260506012043 51 235 0.0 0.0 0.07 0.40 0.40 96 1008.3
20260506011541 51 308 0.9 1.7 0.00 0.39 0.39 96 1008.1
20260506011036 51 287 0.0 1.7 0.00 0.39 0.39 96 1008.1
20260506010531 51 260 0.9 0.9 0.00 0.39 0.39 96 1008.2
20260506010027 51 259 0.0 2.6 0.05 0.39 0.39 96 1008.2
20260506005524 51 209 0.9 0.9 0.00 0.38 0.38 95 1008.2
20260506005020 51 269 0.0 2.6 0.07 0.38 0.38 95 1008.2
20260506004517 51 183 0.0 1.7 0.12 0.38 0.38 95 1008.0
20260506004014 52 76 0.9 1.7 0.17 0.37 0.37 95 1008.1
20260506003510 52 249 0.0 0.0 0.24 0.36 0.36 95 1008.1
20260506003006 52 278 0.9 1.7 0.19 0.34 0.34 95 1008.2
20260506002503 52 221 0.9 0.9 0.14 0.32 0.32 95 1008.4
20260506001958 52 247 0.0 0.0 0.12 0.31 0.31 94 1008.4
20260506001455 53 231 0.0 0.9 0.17 0.30 0.30 94 1008.2
20260506000952 53 264 0.0 1.7 0.28 0.28 0.28 94 1008.4
20260506000450 53 41 0.9 3.5 0.85 0.27 0.27 93 1008.7
20260505235947 54 276 1.7 7.0 0.97 0.23 0.23 92 1008.5
20260505235445 55 260 8.7 12.2 0.54 0.12 0.12 91 1008.9
20260505234941 57 297 2.6 6.1 0.12 0.05 0.05 91 1008.3
20260505234439 57 53 0.9 1.7 0.12 0.03 0.03 91 1007.3
20260505233935 57 321 0.9 3.5 0.12 0.03 0.03 91 1007.5
20260505233433 57 270 1.7 2.6 0.00 0.01 0.01 91 1007.5
20260505232930 57 261 0.0 1.7 0.00 0.01 0.01 90 1007.5
20260505232428 58 343 0.9 2.6 0.00 0.01 0.01 90 1007.4
20260505231925 58 264 0.0 0.9 0.00 0.01 0.01 90 1007.4
20260505231422 58 252 0.9 1.7 0.00 0.01 0.01 90 1007.3
20260505230920 58 241 0.0 1.7 0.00 0.01 0.01 90 1007.4
20260505230418 58 239 0.0 0.0 0.00 0.01 0.01 89 1007.2
20260505225914 58 272 0.0 0.9 0.00 0.01 0.01 89 1007.5
20260505225411 59 282 0.9 1.7 0.00 0.01 0.01 88 1007.4
20260505224906 59 285 0.0 0.0 0.00 0.01 0.01 88 1007.6
20260505224404 59 229 0.0 1.7 0.00 0.01 0.01 88 1007.8
20260505223901 59 262 0.0 0.9 0.00 0.01 0.01 88 1007.8
20260505223358 59 293 0.0 0.0 0.00 0.01 0.01 88 1007.8
20260505222854 59 318 1.7 3.5 0.00 0.01 0.01 88 1007.8
20260505222350 59 325 1.7 2.6 0.00 0.01 0.01 87 1007.9
20260505221847 59 261 0.0 2.6 0.00 0.01 0.01 87 1007.7
20260505221344 60 27 3.5 3.5 0.00 0.01 0.01 87 1007.8
20260505220841 60 191 0.9 2.6 0.00 0.01 0.01 87 1007.9
20260505220338 60 53 0.9 3.5 0.00 0.01 0.01 86 1007.7
20260505215836 61 319 5.2 7.0 0.00 0.01 0.01 86 1008.1
20260505215334 61 274 0.9 0.9 0.00 0.01 0.01 86 1007.9
20260505214831 61 268 0.0 1.7 0.00 0.01 0.01 85 1007.6
20260505214329 61 283 0.0 2.6 0.00 0.01 0.01 85 1007.5
20260505213825 61 311 2.6 5.2 0.00 0.01 0.01 86 1007.6
20260505213324 61 290 0.9 1.7 0.00 0.01 0.01 86 1007.3
20260505212819 62 229 0.0 0.0 0.00 0.01 0.01 85 1007.3
20260505212317 62 272 0.0 0.0 0.00 0.01 0.01 81 1007.3
20260505211812 62 270 0.0 0.9 0.07 0.01 0.01 79 1007.3
20260505211310 63 246 0.9 3.5 0.07 0.01 0.01 76 1007.5
20260505210806 64 201 5.2 7.8 0.00 0.00 0.00 72 1007.4
20260505210303 65 228 1.7 3.5 0.00 0.00 0.00 70 1007.5
20260505205800 66 238 0.9 2.6 0.00 0.00 0.00 69 1007.4
20260505205259 66 237 0.0 0.9 0.00 0.00 0.00 68 1007.4
20260505204755 66 262 0.0 1.7 0.00 0.00 0.00 67 1006.9
20260505204253 66 260 1.7 1.7 0.00 0.00 0.00 65 1006.8
20260505203750 66 251 0.0 0.9 0.00 0.00 0.00 67 1007.1
20260505203247 65 248 0.0 0.9 0.00 0.00 0.00 67 1007.0
20260505202743 65 267 0.9 0.9 0.00 0.00 0.00 67 1007.0
20260505202239 66 285 0.9 1.7 0.00 0.00 0.00 67 1007.1
20260505201735 66 271 0.0 2.6 0.00 0.00 0.00 66 1007.2
20260505201233 66 265 0.0 2.6 0.00 0.00 0.00 67 1007.1
20260505200732 66 281 2.6 3.5 0.00 0.00 0.00 64 1007.2
20260505200228 67 298 2.6 2.6 0.00 0.00 0.00 63 1007.2
20260505195723 66 236 0.0 1.7 0.00 0.00 0.00 65 1007.1
20260505195221 66 255 0.9 1.7 0.00 0.00 0.00 66 1007.3
20260505194719 66 276 0.9 1.7 0.00 0.00 0.00 66 1007.3
20260505194215 66 313 1.7 2.6 0.00 0.00 0.00 66 1007.3
20260505193711 66 255 0.9 1.7 0.00 0.00 0.00 68 1007.3
20260505193208 65 280 1.7 2.6 0.00 0.00 0.00 68 1007.5
20260505192707 65 260 0.9 3.5 0.00 0.00 0.00 68 1007.8
20260505192203 64 280 3.5 3.5 0.00 0.00 0.00 68 1008.0
20260505191701 65 270 1.7 5.2 0.00 0.00 0.00 67 1007.9
20260505191159 66 260 3.5 6.1 0.00 0.00 0.00 64 1008.0
20260505190655 66 332 3.5 6.1 0.00 0.00 0.00 62 1008.1
20260505190150 67 332 1.7 3.5 0.00 0.00 0.00 62 1007.8
20260505185647 67 243 2.6 3.5 0.00 0.00 0.00 61 1007.6
20260505185143 67 224 0.9 2.6 0.00 0.00 0.00 61 1007.7
20260505184640 67 309 1.7 3.5 0.00 0.00 0.00 61 1007.9
20260505184137 68 294 2.6 5.2 0.00 0.00 0.00 59 1008.0
20260505183634 68 217 4.3 5.2 0.00 0.00 0.00 59 1007.6
20260505183131 67 242 0.9 2.6 0.00 0.00 0.00 60 1007.5
20260505182627 68 293 1.7 3.5 0.00 0.00 0.00 60 1007.8
20260505182124 68 253 2.6 5.2 0.00 0.00 0.00 59 1007.7
20260505181621 68 243 0.9 5.2 0.00 0.00 0.00 59 1007.7
20260505181118 68 283 1.7 6.1 0.00 0.00 0.00 59 1007.4
20260505180614 68 296 3.5 7.0 0.00 0.00 0.00 58 1007.6
20260505180112 69 272 2.6 6.1 0.00 0.00 0.00 59 1007.4
20260505175607 69 240 3.5 8.7 0.00 0.00 0.00 57 1007.5
20260505175104 69 253 3.5 8.7 0.00 0.00 0.00 58 1007.4
20260505174601 68 250 3.5 7.0 0.00 0.00 0.00 58 1007.3
20260505174057 69 293 3.5 7.0 0.00 0.00 0.00 57 1007.3
20260505173554 69 237 4.3 7.0 0.00 0.00 0.00 56 1007.3
20260505173050 69 263 3.5 3.5 0.00 0.00 0.00 57 1007.2
20260505172548 69 286 3.5 11.3 0.00 0.00 0.00 56 1007.3
20260505172044 69 230 0.9 3.5 0.00 0.00 0.00 57 1007.3
20260505171539 69 249 1.7 3.5 0.00 0.00 0.00 57 1007.3
20260505171036 69 272 1.7 7.8 0.00 0.00 0.00 58 1007.2
20260505170533 69 271 2.6 5.2 0.00 0.00 0.00 57 1007.2
20260505170030 69 265 4.3 8.7 0.00 0.00 0.00 56 1007.4
20260505165525 70 230 4.3 13.0 0.00 0.00 0.00 55 1007.3
20260505165021 70 301 3.5 8.7 0.00 0.00 0.00 55 1007.2
20260505164517 70 280 9.6 12.2 0.00 0.00 0.00 52 1007.1
20260505164015 71 241 2.6 8.7 0.00 0.00 0.00 52 1007.2
20260505163513 72 253 2.6 9.6 0.00 0.00 0.00 52 1007.0
20260505163009 72 244 2.6 5.2 0.00 0.00 0.00 51 1007.2
20260505162503 72 282 3.5 7.0 0.00 0.00 0.00 54 1007.0
20260505162000 72 214 3.5 7.0 0.00 0.00 0.00 52 1006.8
20260505161456 72 218 1.7 6.1 0.00 0.00 0.00 50 1006.8
20260505160954 71 303 7.0 13.0 0.00 0.00 0.00 52 1006.8
20260505160452 71 240 1.7 9.6 0.00 0.00 0.00 54 1006.5
20260505152928 68 228 2.6 7.0 0.00 0.00 0.00 59 1007.2
20260505152425 68 218 5.2 7.8 0.00 0.00 0.00 58 1007.3
20260505151920 68 338 3.5 8.7 0.00 0.00 0.00 58 1007.2
20260505151416 68 263 7.0 7.8 0.00 0.00 0.00 58 1007.2
20260505150914 68 240 2.6 12.2 0.00 0.00 0.00 59 1007.2
20260505150410 67 247 5.2 8.7 0.00 0.00 0.00 59 1007.3
20260505140329 64 246 4.3 8.7 0.00 0.00 0.00 68 1006.8
20260505130252 62 228 1.7 6.1 0.00 0.00 0.00 72 1006.4
20260505124742 61 215 0.9 2.6 0.00 0.00 0.00 72 1006.2
20260505124239 61 190 1.7 5.2 0.00 0.00 0.00 72 1006.3
20260505123735 62 244 0.0 0.9 0.00 0.00 0.00 73 1006.1
20260505123232 62 224 1.7 5.2 0.00 0.00 0.00 71 1006.4
20260505122728 62 222 1.7 2.6 0.00 0.00 0.00 70 1006.4
20260505122225 62 242 0.0 6.1 0.00 0.00 0.00 70 1006.3
20260505121716 62 226 0.9 1.7 0.00 0.00 0.00 70 1006.4
20260505121213 63 238 1.7 3.5 0.00 0.00 0.00 67 1006.7
20260505120710 63 239 1.7 3.5 0.00 0.00 0.00 66 1006.6
20260505120205 64 173 2.6 5.2 0.00 0.00 0.00 65 1006.2
20260505115659 64 238 1.7 7.0 0.00 0.00 0.00 65 1006.4
20260505115157 64 227 0.9 6.1 0.00 0.00 0.00 64 1006.5
20260505114654 64 200 2.6 6.1 0.00 0.00 0.00 63 1006.2
20260505114150 64 191 3.5 6.1 0.00 0.00 0.00 64 1006.1
20260505113647 64 299 1.7 5.2 0.00 0.00 0.00 63 1006.3
20260505113143 64 263 2.6 2.6 0.00 0.00 0.00 63 1006.1
20260505112639 64 255 4.3 6.1 0.00 0.00 0.00 63 1006.1
20260505112137 64 235 2.6 5.2 0.00 0.00 0.00 63 1005.8
20260505111631 64 175 5.2 9.6 0.00 0.00 0.00 62 1006.1
20260505111128 64 262 1.7 7.8 0.00 0.00 0.00 63 1005.9
20260505110624 64 217 3.5 7.0 0.00 0.00 0.00 63 1005.9
20260505110121 64 257 2.6 7.0 0.00 0.00 0.00 62 1005.6
20260505102057 64 245 4.3 7.0 0.00 0.00 0.00 62 1005.1
20260505101555 64 264 4.3 11.3 0.00 0.00 0.00 62 1004.8
20260505101051 64 203 4.3 7.0 0.00 0.00 0.00 62 1004.9
20260505100548 64 251 3.5 7.8 0.00 0.00 0.00 61 1004.6
20260505100045 64 260 2.6 8.7 0.00 0.00 0.00 61 1004.9
20260505095541 64 279 4.3 7.0 0.00 0.00 0.00 61 1004.8
20260505095038 64 181 4.3 11.3 0.00 0.00 0.00 61 1004.4
20260505094534 64 275 4.3 11.3 0.00 0.00 0.00 61 1004.6
20260505094030 64 234 1.7 7.0 0.00 0.00 0.00 62 1004.9
20260505093527 64 220 2.6 7.8 0.00 0.00 0.00 61 1004.9
20260505093024 64 165 4.3 8.7 0.00 0.00 0.00 62 1004.6
20260505092522 64 217 2.6 7.8 0.00 0.00 0.00 62 1004.8
20260505092020 64 202 1.7 3.5 0.00 0.00 0.00 62 1004.6